Location: Barcelona
(41.3830°N, 2.1830°E)
Time: 12:38:14
(UTC+01:00)

ISS - Pass Details

Date: 24 October 2020
Orbit: 417 x 420 km, 51.6° (Epoch: 29 October)

Event Time Altitude Azimuth Distance (km) Brightness Sun altitude
Exits shadow 06:04:39 18° 142° (SE) 1,079 -1.4 -24.8°
Maximum altitude 06:05:03 19° 132° (SE) 1,066 -1.3 -24.7°
Drops below altitude 10° 06:07:29 10° 86° (E) 1,493 0.1 -24.3°
Sets 06:09:59 0° 67° (ENE) 2,360 1.3 -23.8°
